Tracking 29493 objects as of 8-Sep-2024
HD Live streaming from Space Station
objects crossing your sky now

FENGYUN 1C DEB

Track FENGYUN 1C DEB now!
10-day predictions


NORAD ID: 35135
Int'l Code: 1999-025DLP
Perigee: 769.5 km
Apogee: 890.9 km
Inclination: 98.6 °
Period: 101.4 minutes
Semi major axis: 7201 km
RCS: 0.0108 m2 (small)
Launch date: May 10, 1999
Source: People's Republic of China (PRC)
Launch site: Taiyaun Space Center, China (TSC)

Note: This is SATELLITE DEBRIS
Your satellite tracking list
Your tracking list is empty




NASA's NSSDC Master Catalog

Two Line Element Set (TLE):
1 35135U 99025DLP 24247.86794291  .00003612  00000-0  16357-2 0  9993
2 35135  98.5831 263.7376 0084260 192.3442 167.5672 14.20685979813188
Source of the keplerian elements: AFSPC